Location: Hertford
(51.8000°N, 0.0667°W)
Time: 07:16:06
(UTC+00:00)

ARIANE 5 R/B - Pass Details

Date: 18 September 2020
Orbit: 620 x 657 km, 98.2° (Epoch: 09 October)

Event Time Altitude Azimuth Distance (km) Brightness Sun altitude
Exits shadow 21:15:16 51° 270° (W) 792 3.2 -27.1°
Drops below altitude 10° 21:19:20 10° 337° (NNW) 2,003 6.0 -27.6°
Sets 21:21:35 0° 342° (NNW) 2,913 7.0 -27.8°
